DW6648 Weather Reports


time (UTC)temp
C
wind
direction
speed
KPH
gust
KPH
rain 1hr
cm
rain 24hr
cm
rain mn
cm
humidity
%
barometer
mb
20260506011320 11 13 0.0 0.0 0.00 0.00 0.00 75 1011.6
20260506010320 11 35 0.0 0.0 0.00 0.00 0.00 75 1011.6
20260506005320 11 26 0.0 0.0 0.00 0.00 0.00 75 1011.6
20260506004820 11 20 0.0 0.0 0.00 0.00 0.00 74 1011.6
20260506004319 11 30 0.0 0.0 0.00 0.00 0.00 74 1011.6
20260506003820 11 9 0.0 0.0 0.00 0.00 0.00 74 1011.7
20260506001320 11 5 0.0 0.0 0.00 0.00 0.00 74 1011.7
20260506000821 11 20 0.0 0.0 0.00 0.00 0.00 73 1011.8
20260506000319 11 11 0.0 0.0 0.00 0.00 0.00 73 1011.7
20260505235819 11 355 0.0 0.0 0.00 0.00 0.00 73 1011.7
20260505234819 11 15 0.0 0.0 0.00 0.00 0.00 73 1011.7
20260505234319 11 359 0.0 0.0 0.00 0.00 0.00 73 1011.8
20260505233320 11 332 0.0 0.0 0.00 0.00 0.00 72 1011.7
20260505232818 11 4 0.0 0.0 0.00 0.00 0.00 72 1011.7
20260505232318 11 13 0.0 0.0 0.00 0.00 0.00 72 1011.7
20260505231318 11 356 0.0 0.0 0.00 0.00 0.00 72 1011.8
20260505230828 11 353 0.0 0.0 0.00 0.00 0.00 72 1011.8
20260505230318 12 355 0.0 0.0 0.00 0.00 0.00 72 1011.9
20260505225817 12 344 0.0 0.0 0.00 0.00 0.00 71 1011.9
20260505224817 12 346 0.0 0.0 0.00 0.00 0.00 71 1011.9
20260505223317 12 2 0.0 0.0 0.00 0.00 0.00 71 1011.8
20260505222817 12 0 0.0 0.0 0.00 0.00 0.00 71 1011.8
20260505220316 12 341 0.0 0.0 0.00 0.00 0.00 70 1012.0
20260505215817 12 356 0.0 0.0 0.00 0.00 0.00 70 1012.0
20260505213316 12 324 0.0 0.0 0.00 0.00 0.00 68 1012.0
20260505212315 12 356 0.0 0.0 0.00 0.00 0.00 67 1011.9
20260505211316 12 343 0.0 0.0 0.00 0.00 0.00 67 1012.0
20260505210816 13 329 0.0 0.0 0.00 0.00 0.00 67 1012.0
20260505210315 13 6 0.0 0.0 0.00 0.00 0.00 66 1011.9
20260505204816 13 337 0.0 0.0 0.00 0.00 0.00 66 1011.8
20260505203815 13 357 0.0 0.0 0.00 0.00 0.00 65 1011.8
20260505203316 13 1 0.0 0.0 0.00 0.00 0.00 65 1011.7
20260505202315 13 23 0.0 0.0 0.00 0.00 0.00 65 1011.7
20260505200314 13 9 0.0 0.0 0.00 0.00 0.00 65 1011.7
20260505195814 13 26 0.0 0.0 0.00 0.00 0.00 64 1011.6
20260505195315 13 3 0.0 0.0 0.00 0.00 0.00 64 1011.5
20260505193815 14 19 0.0 0.0 0.00 0.00 0.00 64 1011.4
20260505193315 14 8 0.0 0.0 0.00 0.00 0.00 64 1011.3
20260505192814 14 12 0.0 0.0 0.00 0.00 0.00 63 1011.3
20260505191313 14 36 0.0 0.0 0.00 0.00 0.00 63 1011.3
20260505190813 14 21 0.0 0.0 0.00 0.00 0.00 63 1011.2
20260505190313 14 32 0.0 0.0 0.00 0.00 0.00 63 1011.1
20260505185314 15 351 0.0 0.0 0.00 0.00 0.00 63 1011.1
20260505184814 15 5 0.0 0.0 0.00 0.00 0.00 63 1011.0
20260505184314 15 21 0.0 0.0 0.00 0.00 0.00 64 1011.0
20260505182813 15 18 0.0 0.0 0.00 0.00 0.00 63 1010.9
20260505181813 15 38 0.0 0.0 0.00 0.00 0.00 63 1010.8
20260505180813 15 21 0.0 0.0 0.00 0.00 0.00 63 1010.8
20260505180312 15 29 0.0 0.0 0.00 0.00 0.00 62 1010.9
20260505175812 15 21 0.0 0.0 0.00 0.00 0.00 62 1010.9
20260505171812 15 34 0.0 0.0 0.00 0.00 0.00 62 1011.0
20260505171311 15 8 0.0 0.0 0.00 0.00 0.00 62 1011.1
20260505170311 15 34 0.0 0.0 0.00 0.00 0.00 61 1011.2
20260505165311 15 37 0.0 0.0 0.00 0.00 0.00 62 1011.2
20260505162810 15 43 0.0 0.0 0.00 0.00 0.00 61 1011.1
20260505162311 15 44 0.0 0.0 0.00 0.00 0.00 61 1011.1
20260505161811 15 3 0.0 0.0 0.00 0.00 0.00 61 1011.1
20260505152810 16 0 0.0 0.0 0.00 0.00 0.00 60 1011.2
20260505152310 16 334 0.0 0.0 0.00 0.00 0.00 60 1011.1
20260505151810 16 32 0.0 0.0 0.00 0.00 0.00 60 1011.2
20260505151310 16 352 0.0 0.0 0.00 0.00 0.00 60 1011.2
20260505124807 18 0 0.0 0.0 0.00 0.00 0.00 53 1011.5
20260505124307 18 35 0.0 0.0 0.00 0.00 0.00 52 1011.5
20260505123807 18 7 0.0 0.0 0.00 0.00 0.00 52 1011.6
20260505123307 18 30 0.0 0.0 0.00 0.00 0.00 54 1011.6
20260505122807 17 44 0.0 0.0 0.00 0.00 0.00 54 1011.6
20260505122308 17 345 0.0 0.0 0.00 0.00 0.00 55 1011.6
20260505121806 17 34 0.0 0.0 0.00 0.00 0.00 56 1011.6
20260505121307 17 348 0.0 0.0 0.00 0.00 0.00 56 1011.5
20260505120306 17 18 0.0 0.0 0.00 0.00 0.00 59 1011.6
20260505115806 17 30 0.0 0.0 0.00 0.00 0.00 60 1011.7
20260505113808 16 13 0.0 0.0 0.00 0.00 0.00 62 1011.7
20260505113306 16 359 0.0 0.0 0.00 0.00 0.00 64 1011.7
20260505112805 16 39 0.0 0.0 0.00 0.00 0.00 64 1011.8
20260505112306 16 34 0.0 0.0 0.00 0.00 0.00 65 1011.9
20260505111806 16 357 0.0 0.0 0.00 0.00 0.00 64 1011.9
20260505110806 16 12 0.0 0.0 0.00 0.00 0.00 64 1011.9
20260505101304 15 45 0.0 0.0 0.00 0.00 0.00 67 1012.4
20260505100304 14 30 0.0 0.0 0.00 0.00 0.00 69 1012.4
20260505095305 14 16 0.0 0.0 0.00 0.00 0.00 67 1012.4
20260505093804 15 9 0.0 0.0 0.00 0.00 0.00 69 1012.5
20260505091804 15 4 0.0 0.0 0.00 0.00 0.00 68 1012.6
20260505090804 15 25 0.0 0.0 0.00 0.00 0.00 70 1012.6
20260505084830 14 15 0.0 0.0 0.00 0.00 0.00 72 1012.6
20260505084331 14 0 0.0 0.0 0.00 0.00 0.00 72 1012.6
20260505083830 14 34 0.0 0.0 0.00 0.00 0.00 73 1012.6
20260505082830 13 22 0.0 0.0 0.00 0.00 0.00 75 1012.6
20260505081830 13 35 0.0 0.0 0.00 0.00 0.00 75 1012.6
20260505081330 13 52 0.0 0.0 0.00 0.00 0.00 74 1012.7
20260505080831 13 19 0.0 0.0 0.00 0.00 0.00 74 1012.7
20260505080330 13 17 0.0 0.0 0.00 0.00 0.00 74 1012.7
20260505075330 13 349 0.0 0.0 0.00 0.00 0.00 74 1012.7
20260505074831 13 10 0.0 0.0 0.00 0.00 0.00 74 1012.7
20260505071830 13 57 0.0 0.0 0.00 0.00 0.00 75 1012.7
20260505070830 12 18 0.0 0.0 0.00 0.00 0.00 77 1012.7
20260505065329 12 33 0.0 0.0 0.00 0.00 0.00 81 1012.8
20260505063829 11 44 0.0 0.0 0.00 0.00 0.00 83 1013.0
20260505061329 11 42 0.0 0.0 0.00 0.00 0.00 85 1012.8
20260505060328 10 0 0.0 0.0 0.00 0.00 0.00 85 1012.7
20260505055327 10 0 0.0 0.0 0.00 0.00 0.00 85 1012.8
20260505054829 10 0 0.0 0.0 0.00 0.00 0.00 85 1012.8
20260505054328 10 0 0.0 0.0 0.00 0.00 0.00 85 1012.8
20260505053828 10 0 0.0 0.0 0.00 0.00 0.00 84 1012.8
20260505053327 10 21 0.0 0.0 0.00 0.00 0.00 84 1012.7
20260505052827 10 21 0.0 0.0 0.00 0.00 0.00 84 1012.7
20260505051826 10 53 0.0 0.0 0.00 0.00 0.00 84 1012.5
20260505050326 10 22 0.0 0.0 0.00 0.00 0.00 84 1012.5
20260505041326 11 37 0.0 0.0 0.00 0.00 0.00 83 1012.6
20260505040326 11 36 0.0 0.0 0.00 0.00 0.00 84 1012.6
20260505034325 12 13 0.0 0.0 0.00 0.00 0.00 84 1012.8
20260505032826 12 3 0.0 0.0 0.00 0.00 0.00 84 1012.9
20260505032325 12 42 0.0 0.0 0.00 0.00 0.00 84 1012.8
20260505031326 12 48 0.0 0.0 0.00 0.00 0.00 84 1012.9
20260505030825 12 15 0.0 0.0 0.00 0.00 0.00 84 1012.9
20260505030325 12 33 0.0 0.0 0.00 0.00 0.00 84 1013.0
20260505025825 12 12 0.0 0.0 0.00 0.00 0.00 84 1013.0
20260505024825 12 32 0.0 0.0 0.00 0.00 0.00 84 1013.0
20260505023825 12 347 0.0 0.0 0.00 0.00 0.00 84 1013.0
20260505023325 12 25 0.0 0.0 0.00 0.00 0.00 84 1012.9
20260505022824 12 21 0.0 0.0 0.00 0.00 0.00 84 1013.0
20260505022324 12 41 0.0 0.0 0.00 0.00 0.00 84 1012.9
20260505020824 12 50 0.0 0.0 0.00 0.00 0.00 84 1012.9
20260505020324 12 64 0.0 0.0 0.00 0.00 0.00 83 1013.0
20260505015824 12 66 0.0 0.0 0.00 0.00 0.00 83 1013.0
20260505015323 12 56 0.0 0.0 0.00 0.00 0.00 83 1013.0
20260505014823 12 67 0.0 0.0 0.00 0.00 0.00 83 1012.9
20260505014323 12 50 0.0 0.0 0.00 0.00 0.00 83 1013.0
20260505013823 12 62 0.0 0.0 0.00 0.00 0.00 83 1013.1
20260505012323 12 94 0.0 0.0 0.00 0.00 0.00 83 1013.3
20260505011823 12 62 0.0 0.0 0.00 0.00 0.00 83 1013.2